This demonstration page uses our WeatherBlox Daily Observations layout. Learn more.

Left ArrowRight Arrow

39.12711, -84.51439

Hourly Observations for September 1, 2018

Temp ( °F °C ) Dew Point ( °F °C ) Humidity (%) Winds ( mph kmh ) Pressure ( in mb ) Visibility ( mi km ) Precip ( " mm )
12:53 am 00:53 Clear 71 21.7 71 21.7 100 100 Calm 30.11 1020 10 16 0.01 0.25
1:53 am 01:53 Clear 71 21.7 71 21.7 100 100 ENE 6 9 30.11 1020 10 16 0.00 0.03
2:53 am 02:53 Clear 72 22.2 71 21.7 97 97 ESE 3 6 30.11 1020 10 16 0.00 0.00
3:53 am 03:53 Clear 71 21.7 71 21.7 100 100 Calm 30.09 1019 10 16 0.00 0.00
4:53 am 04:53 Clear 71 21.7 70 21.1 96 96 Calm 30.09 1019 10 16 0.00 0.00
5:53 am 05:53 Mostly Cloudy 70 21.1 70 21.1 100 100 Calm 30.10 1019 10 16 0.00 0.00
6:17 am 06:17 Mostly Cloudy 70 21.1 70 21.1 100 100 Calm 30.09 1019 10 16 0.00 0.00
6:53 am 06:53 Mostly Cloudy 70 21.1 70 21.1 100 100 Calm 30.12 1020 9 14 0.00 0.00
7:53 am 07:53 Mostly Cloudy 71 21.7 71 21.7 100 100 Calm 30.14 1021 10 16 0.00 0.00
8:53 am 08:53 Mostly Cloudy 72 22.2 72 22.2 100 100 S 3 6 30.16 1021 10 16 0.00 0.00
9:53 am 09:53 Mostly Cloudy 73 22.8 72 22.2 96 96 S 5 7 30.17 1022 10 16 0.00 0.00
10:53 am 10:53 Sunny 78 25.6 74 23.3 87 87 S 7 11 30.18 1022 10 16 0.00 0.00
11:53 am 11:53 Sunny 82 27.8 74 23.3 77 77 SSW 6 9 30.16 1022 10 16 0.00 0.00
12:53 pm 12:53 Mostly Cloudy 83 28.3 74 23.3 74 74 SSW 9 15 30.17 1022 10 16 0.00 0.00
1:53 pm 13:53 Partly Cloudy 81 27.2 74 23.3 79 79 S 14 22 30.14 1021 10 16 0.00 0.00
2:53 pm 14:53 Partly Cloudy 83 28.3 74 23.3 74 74 S 10 17 30.13 1020 10 16 0.00 0.00
3:53 pm 15:53 Mostly Cloudy 83 28.3 74 23.3 74 74 S 10 17 30.13 1020 10 16 0.00 0.00
4:12 pm 16:12 Mostly Cloudy with Light Rain 81 27.2 74 23.3 79 79 WSW 10 17 30.12 1020 3 5 0.03 0.76
4:36 pm 16:36 Cloudy with Nearby Thunderstorms 79 26.1 74 23.3 85 85 NNW 18 30 30.12 1020 10 16 0.06 1.52
4:53 pm 16:53 Cloudy with Nearby Thunderstorms 78 25.6 73 22.8 85 85 NNW 5 7 30.12 1020 10 16 0.06 1.52
5:08 pm 17:08 Mostly Cloudy with Thunderstorms 77 25 73 22.8 88 88 VRB 5 7 30.12 1020 10 16 0.00 0.00
5:33 pm 17:33 Mostly Cloudy with Nearby Thunderstorms 77 25 73 22.8 88 88 Calm 30.12 1020 10 16 0.00 0.00
5:44 pm 17:44 Mostly Sunny 77 25 74 23.3 90 90 E 3 6 30.12 1020 10 16 0.00 0.00
5:53 pm 17:53 Partly Cloudy with Nearby Thunderstorms 77 25 74 23.3 90 90 ENE 5 7 30.12 1020 10 16 0.00 0.03
6:05 pm 18:05 Partly Cloudy 77 25 74 23.3 90 90 ENE 5 7 30.09 1019 9 14 0.01 0.25
6:53 pm 18:53 Mostly Sunny 78 25.6 73 22.8 85 85 Calm 30.11 1020 10 16 0.01 0.25
7:53 pm 19:53 Sunny 77 25 74 23.3 90 90 NE 5 7 30.10 1019 10 16 0.00 0.00
8:53 pm 20:53 Clear 74 23.3 73 22.8 97 97 Calm 30.10 1019 10 16 0.00 0.03
9:53 pm 21:53 Clear 74 23.3 73 22.8 97 97 WSW 3 6 30.11 1020 10 16 0.00 0.00
10:53 pm 22:53 Clear 74 23.3 73 22.8 97 97 SW 5 7 30.12 1020 10 16 0.00 0.00
11:53 pm 23:53 Clear 73 22.8 73 22.8 100 100 Calm 30.12 1020 10 16 0.00 0.00

Powered by AerisWeather